Weather History for KMTH - December, 2014

Change the Weather History Date:

Tuesday, December 9, 2014

  Actual Average Record
Temperature  
Mean Temperature 67 °F 73 °F  
Max Temperature 70 °F 78 °F 84 °F (2004)
Min Temperature 63 °F 68 °F 53 °F (2010)
Degree Days  
Heating Degree Days 0 1  
Month to date heating degree days 0 2  
Since 1 July heating degree days 6 3  
Cooling Degree Days 2 8  
Month to date cooling degree days 79 79  
Year to date cooling degree days 5065 4843  
Growing Degree Days 16 (Base 50)    
Moisture  
Dew Point 59 °F    
Average Humidity 77    
Maximum Humidity 87    
Minimum Humidity 67    
Precipitation  
Precipitation 0.00 in 0.08 in 0.76 in (2000)
Month to date precipitation 0.22 0.61  
Year to date precipitation 35.09 44.76  
Snow  
Snow 0.00 in - - ()
Month to date snowfall 0.0  
Since 1 July snowfall 0.0  
Snow Depth 0.00 in    
Sea Level Pressure  
Sea Level Pressure 30.03 in    
Wind  
Wind Speed 12 mph (NNW)    
Max Wind Speed 18 mph    
Max Gust Speed 26 mph    
Visibility 10 miles    
Events      
T = Trace of Precipitation, MM = Missing Value Source: NWS Daily Summary

Daily Weather History Graph

Daily Weather History Graph

Search for Another Location

Airport or City:

Trip Planner

Search our weather history database for the weather conditions in past years. The results will help you decide how hot, cold, wet, or windy it might be!

Date:

Astronomy

Dec. 09, 2014 Rise Set
Actual Time 6:57 AM EST 5:35 PM EST
Civil Twilight 6:32 AM EST 6:00 PM EST
Nautical Twilight 6:04 AM EST 6:29 PM EST
Astronomical Twilight 5:36 AM EST 6:57 PM EST
Moon 8:41 PM EST (12/9) 9:19 AM EST (12/9)
Length of Visible Light 11h 28m
Length of Day
10h 38m
Waning Gibbous, 90% of the Moon is Illuminated
Dec 9
Waning Gibbous
Dec 14
Last Quarter
Dec 21
New
Dec 28
First Quarter
Jan 4
Full

Hourly Weather History & Observations

Time (EST) Temp. Dew Point Humidity Pressure Visibility Wind Dir Wind Speed Gust Speed Precip Events Conditions
12:53 AM 68.0 °F 60.1 °F 76% 30.03 in 10.0 mi NW 9.2 mph - N/A   Scattered Clouds
1:53 AM 68.0 °F 61.0 °F 78% 30.02 in 10.0 mi NW 9.2 mph - N/A   Overcast
2:53 AM 66.9 °F 60.1 °F 79% 30.01 in 10.0 mi WNW 8.1 mph 16.1 mph N/A   Mostly Cloudy
3:53 AM 66.9 °F 59.0 °F 76% 30.00 in 10.0 mi WNW 9.2 mph - N/A   Partly Cloudy
4:53 AM 66.9 °F 59.0 °F 76% 30.00 in 10.0 mi NW 8.1 mph - N/A   Scattered Clouds
5:53 AM 66.9 °F 61.0 °F 81% 29.99 in 10.0 mi NNW 10.4 mph - N/A   Scattered Clouds
6:53 AM 66.0 °F 62.1 °F 87% 30.00 in 10.0 mi North 9.2 mph 17.3 mph N/A   Partly Cloudy
7:53 AM 66.0 °F 62.1 °F 87% 30.03 in 10.0 mi North 10.4 mph 17.3 mph N/A   Mostly Cloudy
8:31 AM 66.0 °F 61.0 °F 84% 30.04 in 10.0 mi NNW 11.5 mph - N/A   Overcast
8:53 AM 66.0 °F 60.1 °F 81% 30.05 in 10.0 mi North 12.7 mph - N/A   Mostly Cloudy
9:16 AM 66.9 °F 60.1 °F 79% 30.05 in 10.0 mi North 11.5 mph - N/A   Scattered Clouds
9:53 AM 68.0 °F 60.1 °F 76% 30.06 in 10.0 mi NNW 11.5 mph 19.6 mph N/A   Mostly Cloudy
10:53 AM 69.1 °F 61.0 °F 75% 30.05 in 10.0 mi NNW 10.4 mph - N/A   Scattered Clouds
11:45 AM 68.0 °F 61.0 °F 78% 30.04 in 10.0 mi NW 11.5 mph - N/A   Mostly Cloudy
11:53 AM 69.1 °F 61.0 °F 75% 30.04 in 10.0 mi NW 11.5 mph 19.6 mph N/A   Mostly Cloudy
12:01 PM 69.1 °F 61.0 °F 75% 30.03 in 10.0 mi NNW 12.7 mph 18.4 mph N/A   Mostly Cloudy
12:53 PM 68.0 °F 61.0 °F 78% 30.02 in 10.0 mi NW 12.7 mph 20.7 mph N/A   Scattered Clouds
1:08 PM 69.1 °F 61.0 °F 75% 30.01 in 10.0 mi NNW 15.0 mph 21.9 mph N/A   Mostly Cloudy
1:16 PM 69.1 °F 61.0 °F 75% 30.01 in 10.0 mi NNW 13.8 mph 23.0 mph N/A   Mostly Cloudy
1:32 PM 66.9 °F 60.1 °F 79% 30.01 in 10.0 mi NNW 17.3 mph 25.3 mph N/A   Mostly Cloudy
1:43 PM 68.0 °F 60.1 °F 76% 30.01 in 10.0 mi NNW 12.7 mph 24.2 mph N/A   Scattered Clouds
1:53 PM 68.0 °F 60.1 °F 76% 30.01 in 10.0 mi NNW 13.8 mph 23.0 mph N/A   Scattered Clouds
2:53 PM 68.0 °F 61.0 °F 78% 30.00 in 10.0 mi NW 15.0 mph 24.2 mph N/A   Overcast
3:21 PM 66.9 °F 60.1 °F 79% 30.00 in 10.0 mi NNW 16.1 mph 23.0 mph N/A   Overcast
3:29 PM 66.9 °F 60.1 °F 79% 30.00 in 10.0 mi NW 17.3 mph 24.2 mph N/A   Overcast
3:53 PM 66.9 °F 60.1 °F 79% 30.00 in 10.0 mi NNW 16.1 mph 25.3 mph N/A   Overcast
4:53 PM 66.9 °F 59.0 °F 76% 30.01 in 10.0 mi NNW 13.8 mph 23.0 mph N/A   Overcast
5:53 PM 66.0 °F 57.9 °F 75% 30.02 in 10.0 mi NW 13.8 mph 23.0 mph N/A   Overcast
6:53 PM 66.0 °F 59.0 °F 78% 30.02 in 10.0 mi NNW 11.5 mph - N/A   Overcast
7:12 PM 66.0 °F 57.9 °F 75% 30.02 in 10.0 mi NNW 11.5 mph - N/A   Overcast
7:53 PM 64.9 °F 57.9 °F 78% 30.04 in 10.0 mi NW 11.5 mph - N/A   Mostly Cloudy
8:01 PM 64.0 °F 57.9 °F 80% 30.04 in 10.0 mi NW 10.4 mph - N/A   Scattered Clouds
8:53 PM 64.0 °F 57.0 °F 78% 30.04 in 10.0 mi NW 16.1 mph 20.7 mph N/A   Clear
9:53 PM 64.0 °F 55.0 °F 73% 30.06 in 10.0 mi North 11.5 mph 20.7 mph N/A   Clear
10:53 PM 64.0 °F 53.1 °F 67% 30.08 in 10.0 mi NNW 10.4 mph 19.6 mph N/A   Clear
11:53 PM 64.0 °F 50.0 °F 60% 30.07 in 10.0 mi North 11.5 mph 19.6 mph N/A   Clear